TimeAKDT,TemperatureF,Dew PointF,Humidity,Sea Level PressureIn,VisibilityMPH,Wind Direction,Wind SpeedMPH,Gust SpeedMPH,PrecipitationIn,Events,Conditions,WindDirDegrees,DateUTC
12:53 AM,55.9,50.0,80,30.00,10.0,WSW,10.4,-,N/A,,Overcast,250,2013-07-10 08:53:00
1:53 AM,55.9,48.9,77,30.01,10.0,WSW,6.9,-,N/A,,Overcast,240,2013-07-10 09:53:00
2:15 AM,55.0,48.9,80,30.00,10.0,Variable,5.8,-,N/A,,Overcast,0,2013-07-10 10:15:00
2:53 AM,55.0,48.9,80,30.01,10.0,SW,8.1,-,N/A,,Overcast,230,2013-07-10 10:53:00
3:53 AM,54.0,48.9,83,30.00,10.0,WSW,8.1,-,N/A,,Overcast,250,2013-07-10 11:53:00
4:53 AM,54.0,50.0,86,30.00,10.0,WSW,8.1,-,N/A,,Overcast,240,2013-07-10 12:53:00
5:53 AM,53.1,50.0,89,30.01,10.0,WSW,4.6,-,0.01,Rain,Light Rain,240,2013-07-10 13:53:00
6:53 AM,53.1,50.0,89,29.99,5.0,WSW,8.1,-,0.03,Rain,Light Rain,240,2013-07-10 14:53:00
7:53 AM,53.1,50.0,89,29.99,5.0,SW,5.8,-,0.04,Rain,Light Rain,220,2013-07-10 15:53:00
8:53 AM,54.0,51.1,90,29.99,5.0,West,9.2,-,0.02,Rain,Light Rain,280,2013-07-10 16:53:00
9:36 AM,53.1,46.0,77,29.99,7.0,NNW,11.5,-,0.00,Rain,Light Rain,330,2013-07-10 17:36:00
9:53 AM,53.1,46.9,80,30.01,7.0,NW,10.4,-,0.00,Rain,Light Rain,320,2013-07-10 17:53:00
10:34 AM,54.0,46.0,75,29.99,10.0,NNW,11.5,-,0.00,,Mostly Cloudy,330,2013-07-10 18:34:00
10:53 AM,54.0,45.0,72,30.00,10.0,NNW,9.2,-,0.00,,Mostly Cloudy,340,2013-07-10 18:53:00
11:21 AM,54.0,45.0,72,29.99,10.0,NNW,9.2,-,N/A,,Overcast,340,2013-07-10 19:21:00
11:53 AM,53.1,46.0,77,30.01,10.0,NNW,8.1,-,0.00,Rain,Light Rain,340,2013-07-10 19:53:00
12:53 PM,54.0,45.0,72,30.01,10.0,NW,6.9,-,0.00,,Overcast,310,2013-07-10 20:53:00
1:33 PM,55.9,46.0,69,29.99,10.0,WNW,8.1,-,N/A,,Overcast,290,2013-07-10 21:33:00
1:53 PM,55.9,45.0,67,30.02,10.0,WNW,6.9,-,N/A,,Overcast,300,2013-07-10 21:53:00
2:53 PM,55.9,46.9,72,30.02,10.0,WSW,4.6,-,N/A,,Overcast,240,2013-07-10 22:53:00
3:53 PM,57.0,46.9,69,30.02,10.0,West,8.1,-,N/A,,Overcast,260,2013-07-10 23:53:00
4:53 PM,57.0,46.9,69,30.03,10.0,WSW,6.9,-,N/A,,Overcast,250,2013-07-11 00:53:00
5:53 PM,59.0,46.9,64,30.02,10.0,West,9.2,-,N/A,,Overcast,270,2013-07-11 01:53:00
6:53 PM,59.0,46.9,64,30.02,10.0,West,8.1,-,N/A,,Overcast,280,2013-07-11 02:53:00
7:53 PM,59.0,46.0,62,30.02,10.0,WSW,3.5,-,N/A,,Mostly Cloudy,250,2013-07-11 03:53:00
8:53 PM,57.9,46.9,67,30.03,10.0,Calm,Calm,-,N/A,,Mostly Cloudy,0,2013-07-11 04:53:00
9:53 PM,55.9,48.0,75,30.04,10.0,NNE,6.9,-,N/A,,Mostly Cloudy,20,2013-07-11 05:53:00
10:12 PM,54.0,50.0,86,30.03,1.8,North,5.8,-,0.00,Rain,Light Rain,360,2013-07-11 06:12:00
10:24 PM,54.0,51.1,90,30.03,2.5,NNW,4.6,-,0.00,Rain,Light Rain,340,2013-07-11 06:24:00
10:40 PM,54.0,51.1,90,30.03,4.0,Calm,Calm,-,0.01,Rain,Light Rain,0,2013-07-11 06:40:00
10:53 PM,54.0,50.0,86,30.05,4.0,Calm,Calm,-,0.01,Rain,Light Rain,0,2013-07-11 06:53:00
11:53 PM,54.0,50.0,86,30.05,3.0,Calm,Calm,-,0.01,,Overcast,0,2013-07-11 07:53:00